LOT9 EPKK-KORD

Flight info

Callsign LOT9
Flight time N/A
Altitude 36000
Route LUMVE L619 NUDRO/N0451F280 L619 ARMEX/N0481F360 L619 DENKO DCT BINKA DCT KOSEB/N0477F380 DCT TESPI DCT RASVI DCT UNPOS DCT GUNPA/M083F380 DCT 63N010W 64N020W 64N030W 63N040W/M084F400 61N050W DCT SAVRY/N0489F400 DCT LAKES DCT MCKEE DCT MEMSO DCT GRAMP DCT LORNE DCT SSM WYNDE3
Aircraft B772/H-SDE2E3FGHIJ5LORVWXY/LB1D1

Departure

Time 2026-05-07 21:56
Airport Kraków John Paul II International Airport (EPKK)

Arrival

Time N/A
Airport Chicago O'Hare International Airport (KORD)
Time Latitude Longitude Altitude Speed Heading
2026-05-07 21:15 50.07343 19.80204 806 ft 0 kts 166°
2026-05-07 21:44 50.07352 19.80200 806 ft 2 kts 166°
2026-05-07 21:44 50.07367 19.80194 806 ft 2 kts 166°
2026-05-07 21:44 50.07381 19.80189 806 ft 2 kts 166°
2026-05-07 21:44 50.07396 19.80183 806 ft 2 kts 158°
2026-05-07 21:45 50.07408 19.80170 806 ft 2 kts 127°
2026-05-07 21:45 50.07415 19.80150 806 ft 2 kts 102°
2026-05-07 21:45 50.07415 19.80127 806 ft 2 kts 76°
2026-05-07 21:45 50.07411 19.80104 806 ft 1 kts 75°
2026-05-07 21:46 50.07410 19.80098 806 ft 0 kts 76°
2026-05-07 21:48 50.07410 19.80100 806 ft 0 kts 76°
2026-05-07 21:48 50.07419 19.80157 806 ft 12 kts 78°
2026-05-07 21:48 50.07437 19.80292 806 ft 13 kts 77°
2026-05-07 21:48 50.07498 19.80387 806 ft 13 kts 19°
2026-05-07 21:49 50.07586 19.80421 806 ft 12 kts 356°
2026-05-07 21:49 50.07674 19.80393 806 ft 13 kts 348°
2026-05-07 21:49 50.07762 19.80357 806 ft 12 kts 326°
2026-05-07 21:49 50.07762 19.80228 806 ft 12 kts 257°
2026-05-07 21:50 50.07743 19.80089 806 ft 13 kts 258°
2026-05-07 21:50 50.07722 19.79940 806 ft 16 kts 258°
2026-05-07 21:50 50.07697 19.79755 806 ft 17 kts 258°
2026-05-07 21:50 50.07671 19.79567 806 ft 17 kts 258°
2026-05-07 21:51 50.07645 19.79379 806 ft 17 kts 258°
2026-05-07 21:51 50.07618 19.79196 806 ft 17 kts 258°
2026-05-07 21:51 50.07593 19.79014 806 ft 17 kts 258°
2026-05-07 21:51 50.07569 19.78834 806 ft 17 kts 258°
2026-05-07 21:52 50.07544 19.78654 806 ft 16 kts 259°
2026-05-07 21:52 50.07519 19.78478 806 ft 16 kts 258°
2026-05-07 21:52 50.07494 19.78301 806 ft 16 kts 258°
2026-05-07 21:52 50.07470 19.78123 806 ft 16 kts 258°
2026-05-07 21:53 50.07445 19.77949 806 ft 16 kts 257°
2026-05-07 21:53 50.07421 19.77774 806 ft 16 kts 258°
2026-05-07 21:53 50.07397 19.77603 806 ft 16 kts 258°
2026-05-07 21:53 50.07373 19.77427 806 ft 16 kts 258°
2026-05-07 21:54 50.07349 19.77255 806 ft 16 kts 258°
2026-05-07 21:54 50.07325 19.77084 806 ft 16 kts 258°
2026-05-07 21:54 50.07315 19.76937 806 ft 12 kts 296°
2026-05-07 21:54 50.07386 19.76886 806 ft 10 kts 345°
2026-05-07 21:55 50.07457 19.76860 806 ft 10 kts 348°
2026-05-07 21:55 50.07529 19.76851 806 ft 10 kts 28°
2026-05-07 21:55 50.07553 19.76907 806 ft 0 kts 75°
2026-05-07 21:55 50.07574 19.77039 806 ft 36 kts 78°
2026-05-07 21:56 50.07679 19.77803 806 ft 106 kts 78°
2026-05-07 21:56 50.07875 19.79232 818 ft 161 kts 76°
2026-05-07 21:56 50.08122 19.80954 1321 ft 165 kts 77°
2026-05-07 21:56 50.08379 19.82738 1942 ft 173 kts 78°
2026-05-07 21:57 50.08635 19.84619 2350 ft 187 kts 78°
2026-05-07 21:57 50.08914 19.86674 2707 ft 206 kts 78°
2026-05-07 21:57 50.09250 19.88954 3159 ft 224 kts 70°
2026-05-07 21:57 50.10075 19.91067 3636 ft 239 kts 41°
2026-05-07 21:58 50.11522 19.92395 4227 ft 249 kts 12°
2026-05-07 21:58 50.13261 19.92543 4785 ft 260 kts 352°
2026-05-07 21:58 50.15062 19.92169 5609 ft 265 kts 349°
2026-05-07 21:58 50.16885 19.91784 6404 ft 269 kts 348°
2026-05-07 21:59 50.18633 19.90782 7195 ft 269 kts 323°
2026-05-07 21:59 50.20057 19.88950 7994 ft 269 kts 316°
2026-05-07 21:59 50.21452 19.86988 8720 ft 273 kts 316°
2026-05-07 21:59 50.22857 19.85002 9424 ft 276 kts 316°
2026-05-07 22:00 50.24265 19.83010 10120 ft 278 kts 316°
2026-05-07 22:00 50.25732 19.80929 10509 ft 292 kts 316°
2026-05-07 22:00 50.27279 19.78734 10809 ft 310 kts 316°
2026-05-07 22:00 50.28904 19.76425 11115 ft 327 kts 316°
2026-05-07 22:01 50.30642 19.73954 11462 ft 343 kts 316°
2026-05-07 22:01 50.32424 19.71418 11807 ft 358 kts 316°
2026-05-07 22:01 50.34304 19.68740 12191 ft 372 kts 316°
2026-05-07 22:01 50.36234 19.65990 12745 ft 380 kts 315°
2026-05-07 22:02 50.38193 19.63198 13400 ft 385 kts 315°
2026-05-07 22:02 50.40187 19.60351 14046 ft 390 kts 315°
2026-05-07 22:02 50.42199 19.57476 14706 ft 395 kts 315°
2026-05-07 22:02 50.44220 19.54585 15381 ft 399 kts 315°
2026-05-07 22:03 50.46275 19.51641 16019 ft 404 kts 315°
2026-05-07 22:03 50.48349 19.48668 16676 ft 408 kts 315°
2026-05-07 22:03 50.50456 19.45643 17310 ft 413 kts 315°
2026-05-07 22:03 50.52561 19.42617 17925 ft 418 kts 315°
2026-05-07 22:04 50.54716 19.39515 18543 ft 423 kts 314°
2026-05-07 22:04 50.56898 19.36369 19187 ft 427 kts 314°
2026-05-07 22:04 50.59096 19.33198 19804 ft 432 kts 314°
2026-05-07 22:04 50.61290 19.30028 20405 ft 436 kts 313°
2026-05-07 22:05 50.63552 19.26756 20998 ft 441 kts 313°
2026-05-07 22:05 50.65808 19.23486 21567 ft 447 kts 313°
2026-05-07 22:05 50.68101 19.20161 22182 ft 450 kts 313°
2026-05-07 22:05 50.70374 19.16859 22787 ft 453 kts 313°
2026-05-07 22:06 50.72713 19.13458 23324 ft 458 kts 313°
2026-05-07 22:06 50.75070 19.10025 23868 ft 463 kts 313°
2026-05-07 22:06 50.77432 19.06580 24449 ft 466 kts 313°
2026-05-07 22:06 50.79791 19.03135 24986 ft 470 kts 313°
2026-05-07 22:07 50.82211 18.99595 25503 ft 474 kts 313°
2026-05-07 22:07 50.84644 18.96031 25975 ft 479 kts 313°
2026-05-07 22:07 50.87112 18.92411 26446 ft 483 kts 313°
2026-05-07 22:07 50.89607 18.88746 26953 ft 487 kts 313°
2026-05-07 22:08 50.92108 18.85065 27417 ft 491 kts 313°
2026-05-07 22:08 50.94604 18.81389 27893 ft 494 kts 313°
2026-05-07 22:08 50.97131 18.77659 28323 ft 498 kts 313°
2026-05-07 22:08 50.99680 18.73893 28780 ft 501 kts 313°
2026-05-07 22:09 51.02213 18.70144 29211 ft 504 kts 313°
2026-05-07 22:09 51.04792 18.66321 29707 ft 506 kts 312°
2026-05-07 22:09 51.07364 18.62506 30287 ft 506 kts 312°
2026-05-07 22:09 51.09914 18.58716 30866 ft 505 kts 312°
2026-05-07 22:10 51.12473 18.54907 31335 ft 504 kts 312°
2026-05-07 22:10 51.15021 18.51109 31754 ft 505 kts 312°
2026-05-07 22:10 51.17565 18.47310 32115 ft 506 kts 312°
2026-05-07 22:10 51.20128 18.43478 32553 ft 506 kts 312°
2026-05-07 22:11 51.22687 18.39646 33047 ft 504 kts 312°
2026-05-07 22:11 51.25232 18.35830 33436 ft 502 kts 312°
2026-05-07 22:11 51.27796 18.31980 33789 ft 501 kts 311°
2026-05-07 22:11 51.30315 18.28191 34090 ft 501 kts 311°
2026-05-07 22:12 51.32827 18.24405 34359 ft 502 kts 312°
2026-05-07 22:12 51.35350 18.20598 34685 ft 501 kts 312°
2026-05-07 22:12 51.37863 18.16801 35081 ft 498 kts 312°
2026-05-07 22:12 51.40362 18.13020 35543 ft 493 kts 312°
2026-05-07 22:13 51.42844 18.09260 35938 ft 491 kts 312°
2026-05-07 22:13 51.45303 18.05525 36031 ft 493 kts 312°
2026-05-07 22:13 51.50271 17.97964 36050 ft 491 kts 312°
2026-05-07 22:14 51.55193 17.90452 36052 ft 490 kts 312°
2026-05-07 22:14 51.60109 17.82924 36060 ft 489 kts 312°
2026-05-07 22:15 51.65001 17.75410 36056 ft 489 kts 313°
2026-05-07 22:15 51.69914 17.67841 36061 ft 489 kts 313°
2026-05-07 22:16 51.74773 17.60331 36058 ft 487 kts 313°
2026-05-07 22:16 51.79644 17.52780 36065 ft 489 kts 313°
2026-05-07 22:17 51.84535 17.45175 36068 ft 487 kts 313°
2026-05-07 22:17 51.89385 17.37608 36068 ft 487 kts 313°
2026-05-07 22:18 51.96650 17.26233 36071 ft 485 kts 312°
2026-05-07 22:19 52.01476 17.18644 36072 ft 485 kts 313°
2026-05-07 22:19 52.06325 17.10996 36078 ft 485 kts 313°
2026-05-07 22:20 52.11134 17.03388 36081 ft 485 kts 313°
2026-05-07 22:20 52.15945 16.95754 36078 ft 484 kts 313°
2026-05-07 22:21 52.20732 16.88133 36081 ft 484 kts 313°
2026-05-07 22:21 52.25555 16.80432 36087 ft 484 kts 313°
2026-05-07 22:22 52.29517 16.74088 36087 ft 482 kts 313°
2026-05-07 22:22 52.35093 16.65130 36092 ft 483 kts 313°
2026-05-07 22:23 52.39870 16.57429 36092 ft 483 kts 313°
2026-05-07 22:23 52.44619 16.49750 36098 ft 482 kts 313°
2026-05-07 22:24 52.49353 16.42072 36101 ft 482 kts 313°
2026-05-07 22:24 52.54094 16.34358 36102 ft 482 kts 313°
2026-05-07 22:25 52.58055 16.27894 36109 ft 481 kts 313°
2026-05-07 22:25 52.63556 16.18888 36105 ft 481 kts 313°
2026-05-07 22:26 52.68288 16.11115 36113 ft 481 kts 313°
2026-05-07 22:26 52.72992 16.03365 36107 ft 480 kts 313°
2026-05-07 22:27 52.77685 15.95609 36113 ft 480 kts 313°
2026-05-07 22:27 52.82376 15.87830 36113 ft 480 kts 313°
2026-05-07 22:28 52.87055 15.80048 36114 ft 479 kts 313°
2026-05-07 22:28 52.91742 15.72227 36110 ft 480 kts 313°
2026-05-07 22:29 52.96442 15.64362 36111 ft 480 kts 313°
2026-05-07 22:29 53.00325 15.57843 36116 ft 479 kts 313°
2026-05-07 22:30 53.05774 15.48668 36116 ft 479 kts 313°
2026-05-07 22:30 53.10410 15.40836 36119 ft 478 kts 313°
2026-05-07 22:31 53.15087 15.32910 36120 ft 478 kts 313°
2026-05-07 22:31 53.19703 15.25061 36119 ft 478 kts 313°
2026-05-07 22:32 53.24340 15.17152 36123 ft 479 kts 313°